| time (UTC) | temp C | wind direction | speed KPH | gust KPH | rain 1hr cm | rain 24hr cm | rain mn cm | humidity % | barometer mb |
| 20260903040112 | 26 | 0 | 0.0 | 0.0 | 0.00 | 0.00 | 0.00 | 79 | 1017.8 |
| 20260903035534 | 26 | 0 | 0.0 | 0.0 | 0.00 | 0.00 | 0.00 | 79 | 1017.7 |
| 20260903035230 | 26 | 0 | 0.0 | 0.0 | 0.00 | 0.00 | 0.00 | 78 | 1017.8 |
| 20260903034548 | 26 | 0 | 0.0 | 0.0 | 0.00 | 0.00 | 0.00 | 78 | 1017.9 |
| 20260903034036 | 26 | 0 | 0.0 | 0.0 | 0.00 | 0.00 | 0.00 | 78 | 1017.9 |
| 20260903033530 | 26 | 0 | 0.0 | 0.0 | 0.00 | 0.00 | 0.00 | 78 | 1018.0 |
| 20260903033054 | 26 | 0 | 0.0 | 0.0 | 0.00 | 0.00 | 0.00 | 77 | 1017.9 |
| 20260903032532 | 27 | 0 | 0.0 | 0.0 | 0.00 | 0.00 | 0.00 | 78 | 1018.0 |
| 20260903032032 | 27 | 0 | 0.0 | 0.0 | 0.00 | 0.00 | 0.00 | 78 | 1018.0 |
| 20260903031606 | 27 | 0 | 0.0 | 0.0 | 0.00 | 0.00 | 0.00 | 77 | 1018.0 |
| 20260903031029 | 27 | 0 | 0.0 | 6.4 | 0.00 | 0.00 | 0.00 | 77 | 1018.1 |
| 20260903030531 | 27 | 0 | 0.0 | 6.4 | 0.00 | 0.00 | 0.00 | 77 | 1018.1 |
| 20260903030053 | 27 | 42 | 0.0 | 0.0 | 0.00 | 0.00 | 0.00 | 77 | 1018.0 |
| 20260903025533 | 27 | 0 | 0.0 | 0.0 | 0.00 | 0.00 | 0.00 | 76 | 1018.0 |
| 20260903025031 | 27 | 0 | 0.0 | 0.0 | 0.00 | 0.00 | 0.00 | 76 | 1018.0 |
| 20260903024547 | 27 | 0 | 0.0 | 0.0 | 0.00 | 0.00 | 0.00 | 75 | 1018.0 |
| 20260903024029 | 27 | 0 | 0.0 | 0.0 | 0.00 | 0.00 | 0.00 | 75 | 1018.0 |
| 20260903023529 | 27 | 0 | 0.0 | 0.0 | 0.00 | 0.00 | 0.00 | 74 | 1018.0 |
| 20260903023043 | 27 | 0 | 0.0 | 0.0 | 0.00 | 0.00 | 0.00 | 74 | 1018.0 |
| 20260903022533 | 27 | 0 | 0.0 | 0.0 | 0.00 | 0.00 | 0.00 | 73 | 1018.0 |
| 20260903022031 | 27 | 0 | 0.0 | 0.0 | 0.00 | 0.00 | 0.00 | 73 | 1017.9 |
| 20260903021554 | 28 | 0 | 0.0 | 0.0 | 0.00 | 0.00 | 0.00 | 72 | 1017.9 |
| 20260903021034 | 28 | 0 | 0.0 | 0.0 | 0.00 | 0.00 | 0.00 | 72 | 1017.9 |
| 20260903020529 | 28 | 0 | 0.0 | 0.0 | 0.00 | 0.00 | 0.00 | 71 | 1017.9 |
| 20260903020049 | 28 | 0 | 0.0 | 0.0 | 0.00 | 0.00 | 0.00 | 71 | 1017.9 |
| 20260903015529 | 28 | 0 | 0.0 | 0.0 | 0.00 | 0.00 | 0.00 | 71 | 1017.9 |
| 20260903015031 | 28 | 0 | 0.0 | 0.0 | 0.00 | 0.00 | 0.00 | 71 | 1017.8 |
| 20260903014556 | 28 | 0 | 0.0 | 0.0 | 0.00 | 0.00 | 0.00 | 70 | 1017.7 |
| 20260903014032 | 28 | 0 | 0.0 | 0.0 | 0.00 | 0.00 | 0.00 | 70 | 1017.8 |
| 20260903013529 | 28 | 0 | 0.0 | 0.0 | 0.00 | 0.00 | 0.00 | 70 | 1017.8 |
| 20260903013053 | 28 | 0 | 0.0 | 0.0 | 0.00 | 0.00 | 0.00 | 69 | 1017.6 |
| 20260903012532 | 28 | 0 | 0.0 | 0.0 | 0.00 | 0.00 | 0.00 | 68 | 1017.6 |
| 20260903012033 | 29 | 0 | 0.0 | 0.0 | 0.00 | 0.00 | 0.00 | 67 | 1017.6 |
| 20260903011545 | 29 | 0 | 0.0 | 0.0 | 0.00 | 0.00 | 0.00 | 67 | 1017.6 |
| 20260903011032 | 29 | 0 | 0.0 | 0.0 | 0.00 | 0.00 | 0.00 | 65 | 1017.5 |
| 20260903010529 | 30 | 0 | 0.0 | 0.0 | 0.00 | 0.00 | 0.00 | 65 | 1017.4 |
| 20260903010041 | 30 | 0 | 0.0 | 0.0 | 0.00 | 0.00 | 0.00 | 65 | 1017.3 |
| 20260903005532 | 30 | 0 | 0.0 | 0.0 | 0.00 | 0.00 | 0.00 | 65 | 1017.4 |
| 20260903005031 | 30 | 0 | 0.0 | 0.0 | 0.00 | 0.00 | 0.00 | 65 | 1017.4 |
| 20260903004552 | 30 | 0 | 0.0 | 0.0 | 0.00 | 0.00 | 0.00 | 64 | 1017.4 |
| 20260903004030 | 30 | 0 | 0.0 | 0.0 | 0.00 | 0.00 | 0.00 | 63 | 1017.2 |
| 20260903003529 | 30 | 0 | 0.0 | 0.0 | 0.00 | 0.00 | 0.00 | 63 | 1017.1 |
| 20260903003047 | 31 | 0 | 0.0 | 0.0 | 0.00 | 0.00 | 0.00 | 63 | 1017.1 |
| 20260903002528 | 31 | 0 | 0.0 | 0.0 | 0.00 | 0.00 | 0.00 | 62 | 1017.1 |
| 20260903002029 | 31 | 0 | 0.0 | 1.6 | 0.00 | 0.00 | 0.00 | 61 | 1017.2 |
| 20260903001542 | 31 | 0 | 0.0 | 1.6 | 0.00 | 0.00 | 0.00 | 60 | 1017.0 |
| 20260903001036 | 31 | 0 | 0.0 | 0.0 | 0.00 | 0.00 | 0.00 | 60 | 1016.9 |
| 20260903000528 | 31 | 0 | 0.0 | 0.0 | 0.00 | 0.00 | 0.00 | 59 | 1017.0 |
| 20260903000058 | 32 | 0 | 0.0 | 0.0 | 0.00 | 0.00 | 0.00 | 59 | 1016.9 |
| 20260902235529 | 32 | 0 | 0.0 | 0.0 | 0.00 | 0.00 | 0.00 | 58 | 1017.0 |
| 20260902235032 | 32 | 0 | 0.0 | 0.0 | 0.00 | 0.00 | 0.00 | 58 | 1017.0 |
| 20260902234550 | 32 | 0 | 0.0 | 0.0 | 0.00 | 0.00 | 0.00 | 58 | 1017.0 |
| 20260902234030 | 32 | 0 | 0.0 | 0.0 | 0.00 | 0.00 | 0.00 | 57 | 1017.0 |
| 20260902233528 | 32 | 0 | 0.0 | 3.2 | 0.00 | 0.00 | 0.00 | 57 | 1016.9 |
| 20260902233047 | 32 | 0 | 0.0 | 3.2 | 0.00 | 0.00 | 0.00 | 56 | 1016.9 |
| 20260902232530 | 32 | 0 | 0.0 | 3.2 | 0.00 | 0.00 | 0.00 | 55 | 1017.0 |
| 20260902232029 | 33 | 0 | 0.0 | 3.2 | 0.00 | 0.00 | 0.00 | 55 | 1016.9 |
| 20260902231542 | 33 | 0 | 0.0 | 3.2 | 0.00 | 0.00 | 0.00 | 54 | 1017.0 |
| 20260902231029 | 33 | 0 | 0.0 | 6.4 | 0.00 | 0.00 | 0.00 | 53 | 1016.9 |
| 20260902230531 | 33 | 41 | 0.0 | 6.4 | 0.00 | 0.00 | 0.00 | 51 | 1016.9 |
| 20260902230056 | 33 | 48 | 0.0 | 4.8 | 0.00 | 0.00 | 0.00 | 51 | 1016.9 |
| 20260902225532 | 34 | 49 | 0.0 | 6.4 | 0.00 | 0.00 | 0.00 | 52 | 1017.0 |
| 20260902225032 | 34 | 49 | 1.6 | 6.4 | 0.00 | 0.00 | 0.00 | 50 | 1016.8 |
| 20260902224549 | 34 | 50 | 1.6 | 6.4 | 0.00 | 0.00 | 0.00 | 50 | 1017.0 |
| 20260902224031 | 34 | 110 | 0.0 | 8.0 | 0.00 | 0.00 | 0.00 | 49 | 1017.0 |
| 20260902223530 | 34 | 69 | 3.2 | 9.7 | 0.00 | 0.00 | 0.00 | 49 | 1017.0 |
| 20260902223046 | 34 | 90 | 3.2 | 9.7 | 0.00 | 0.00 | 0.00 | 49 | 1017.0 |
| 20260902222530 | 34 | 72 | 3.2 | 8.0 | 0.00 | 0.00 | 0.00 | 48 | 1017.0 |
| 20260902222030 | 35 | 48 | 3.2 | 9.7 | 0.00 | 0.00 | 0.00 | 47 | 1017.0 |
| 20260902221553 | 35 | 40 | 1.6 | 9.7 | 0.00 | 0.00 | 0.00 | 48 | 1017.1 |
| 20260902221030 | 35 | 40 | 3.2 | 14.5 | 0.00 | 0.00 | 0.00 | 47 | 1017.0 |
| 20260902220528 | 35 | 39 | 6.4 | 14.5 | 0.00 | 0.00 | 0.00 | 47 | 1017.1 |
| 20260902220049 | 35 | 140 | 4.8 | 11.3 | 0.00 | 0.00 | 0.00 | 47 | 1017.1 |
| 20260902215531 | 35 | 0 | 1.6 | 9.7 | 0.00 | 0.00 | 0.00 | 46 | 1017.1 |
| 20260902215027 | 35 | 59 | 3.2 | 8.0 | 0.00 | 0.00 | 0.00 | 46 | 1017.1 |
| 20260902214559 | 35 | 50 | 3.2 | 9.7 | 0.00 | 0.00 | 0.00 | 45 | 1017.2 |
| 20260902214029 | 35 | 40 | 4.8 | 9.7 | 0.00 | 0.00 | 0.00 | 46 | 1017.2 |
| 20260902213528 | 35 | 20 | 3.2 | 12.9 | 0.00 | 0.00 | 0.00 | 47 | 1017.2 |
| 20260902213052 | 35 | 32 | 4.8 | 12.9 | 0.00 | 0.00 | 0.00 | 47 | 1017.2 |
| 20260902212528 | 35 | 0 | 1.6 | 14.5 | 0.00 | 0.00 | 0.00 | 46 | 1017.2 |
| 20260902212031 | 35 | 19 | 4.8 | 14.5 | 0.00 | 0.00 | 0.00 | 47 | 1017.2 |
| 20260902211603 | 35 | 139 | 1.6 | 12.9 | 0.00 | 0.00 | 0.00 | 47 | 1017.2 |
| 20260902211028 | 35 | 101 | 1.6 | 9.7 | 0.00 | 0.00 | 0.00 | 48 | 1017.2 |
| 20260902210531 | 35 | 92 | 1.6 | 9.7 | 0.00 | 0.00 | 0.00 | 48 | 1017.3 |
| 20260902210110 | 35 | 126 | 1.6 | 6.4 | 0.00 | 0.00 | 0.00 | 48 | 1017.3 |
| 20260902205531 | 35 | 34 | 3.2 | 6.4 | 0.00 | 0.00 | 0.00 | 48 | 1017.4 |
| 20260902205029 | 35 | 30 | 1.6 | 8.0 | 0.00 | 0.00 | 0.00 | 47 | 1017.4 |
| 20260902204550 | 35 | 0 | 1.6 | 8.0 | 0.00 | 0.00 | 0.00 | 48 | 1017.4 |
| 20260902204028 | 35 | 36 | 1.6 | 9.7 | 0.00 | 0.00 | 0.00 | 47 | 1017.5 |
| 20260902203528 | 35 | 42 | 1.6 | 9.7 | 0.00 | 0.00 | 0.00 | 47 | 1017.4 |
| 20260902203052 | 35 | 40 | 4.8 | 11.3 | 0.00 | 0.00 | 0.00 | 48 | 1017.5 |
| 20260902202528 | 35 | 127 | 0.0 | 11.3 | 0.00 | 0.00 | 0.00 | 48 | 1017.6 |
| 20260902202029 | 35 | 156 | 3.2 | 11.3 | 0.00 | 0.00 | 0.00 | 47 | 1017.6 |
| 20260902201607 | 35 | 273 | 1.6 | 14.5 | 0.00 | 0.00 | 0.00 | 47 | 1017.6 |
| 20260902201028 | 35 | 42 | 4.8 | 14.5 | 0.00 | 0.00 | 0.00 | 46 | 1017.8 |
| 20260902200531 | 35 | 53 | 3.2 | 8.0 | 0.00 | 0.00 | 0.00 | 48 | 1017.9 |
| 20260902200047 | 35 | 0 | 1.6 | 14.5 | 0.00 | 0.00 | 0.00 | 47 | 1017.9 |
| 20260902195532 | 35 | 94 | 3.2 | 17.7 | 0.00 | 0.00 | 0.00 | 46 | 1018.0 |
| 20260902195030 | 35 | 59 | 4.8 | 17.7 | 0.00 | 0.00 | 0.00 | 47 | 1018.0 |
| 20260902194550 | 35 | 25 | 4.8 | 9.7 | 0.00 | 0.00 | 0.00 | 49 | 1018.0 |
| 20260902194031 | 35 | 0 | 0.0 | 14.5 | 0.00 | 0.00 | 0.00 | 50 | 1018.0 |
| 20260902193529 | 35 | 0 | 3.2 | 14.5 | 0.00 | 0.00 | 0.00 | 49 | 1018.1 |
| 20260902193053 | 35 | 119 | 6.4 | 14.5 | 0.00 | 0.00 | 0.00 | 48 | 1018.2 |
| 20260902192528 | 35 | 209 | 1.6 | 12.9 | 0.00 | 0.00 | 0.00 | 47 | 1018.2 |
| 20260902192028 | 36 | 148 | 1.6 | 11.3 | 0.00 | 0.00 | 0.00 | 48 | 1018.2 |
| 20260902191558 | 35 | 0 | 1.6 | 11.3 | 0.00 | 0.00 | 0.00 | 47 | 1018.3 |
| 20260902191028 | 35 | 65 | 1.6 | 8.0 | 0.00 | 0.00 | 0.00 | 47 | 1018.3 |
| 20260902190528 | 35 | 59 | 1.6 | 8.0 | 0.00 | 0.00 | 0.00 | 47 | 1018.4 |
| 20260902190046 | 35 | 67 | 1.6 | 8.0 | 0.00 | 0.00 | 0.00 | 47 | 1018.4 |
| 20260902185533 | 34 | 82 | 1.6 | 6.4 | 0.00 | 0.00 | 0.00 | 48 | 1018.6 |
| 20260902185030 | 34 | 51 | 0.0 | 6.4 | 0.00 | 0.00 | 0.00 | 50 | 1018.6 |
| 20260902184543 | 34 | 0 | 1.6 | 8.0 | 0.00 | 0.00 | 0.00 | 49 | 1018.6 |
| 20260902184032 | 34 | 56 | 3.2 | 8.0 | 0.00 | 0.00 | 0.00 | 49 | 1018.7 |
| 20260902183529 | 34 | 40 | 3.2 | 8.0 | 0.00 | 0.00 | 0.00 | 50 | 1018.7 |
| 20260902183054 | 34 | 0 | 1.6 | 8.0 | 0.00 | 0.00 | 0.00 | 51 | 1018.7 |
| 20260902182532 | 34 | 226 | 4.8 | 8.0 | 0.00 | 0.00 | 0.00 | 51 | 1018.8 |
| 20260902182028 | 34 | 153 | 4.8 | 8.0 | 0.00 | 0.00 | 0.00 | 52 | 1018.8 |
| 20260902181603 | 33 | 0 | 3.2 | 9.7 | 0.00 | 0.00 | 0.00 | 51 | 1018.8 |
| 20260902181034 | 34 | 205 | 3.2 | 14.5 | 0.00 | 0.00 | 0.00 | 52 | 1018.9 |
| 20260902180531 | 34 | 292 | 4.8 | 16.1 | 0.00 | 0.00 | 0.00 | 51 | 1018.8 |
| 20260902180108 | 35 | 331 | 4.8 | 16.1 | 0.00 | 0.00 | 0.00 | 50 | 1018.9 |
| 20260902175534 | 35 | 5 | 4.8 | 12.9 | 0.00 | 0.00 | 0.00 | 48 | 1018.9 |
| 20260902175031 | 35 | 35 | 3.2 | 16.1 | 0.00 | 0.00 | 0.00 | 47 | 1018.9 |
| 20260902174556 | 35 | 44 | 6.4 | 16.1 | 0.00 | 0.00 | 0.00 | 47 | 1019.1 |
| 20260902174031 | 35 | 196 | 6.4 | 12.9 | 0.00 | 0.00 | 0.00 | 48 | 1019.1 |
| 20260902173531 | 35 | 340 | 1.6 | 8.0 | 0.00 | 0.00 | 0.00 | 50 | 1019.2 |
| 20260902173043 | 35 | 33 | 3.2 | 14.5 | 0.00 | 0.00 | 0.00 | 49 | 1019.3 |
| 20260902172529 | 35 | 5 | 6.4 | 14.5 | 0.00 | 0.00 | 0.00 | 50 | 1019.4 |
| 20260902172028 | 35 | 334 | 3.2 | 11.3 | 0.00 | 0.00 | 0.00 | 50 | 1019.5 |
| 20260902171547 | 35 | 111 | 3.2 | 6.4 | 0.00 | 0.00 | 0.00 | 51 | 1019.6 |
| 20260902171029 | 35 | 0 | 0.0 | 6.4 | 0.00 | 0.00 | 0.00 | 52 | 1019.7 |
| 20260902170531 | 35 | 0 | 1.6 | 12.9 | 0.00 | 0.00 | 0.00 | 51 | 1019.7 |
| 20260902170049 | 35 | 331 | 6.4 | 12.9 | 0.00 | 0.00 | 0.00 | 51 | 1019.8 |
| 20260902165531 | 35 | 315 | 1.6 | 9.7 | 0.00 | 0.00 | 0.00 | 51 | 1019.8 |
| 20260902165031 | 35 | 0 | 3.2 | 12.9 | 0.00 | 0.00 | 0.00 | 51 | 1019.7 |
| 20260902164547 | 35 | 323 | 4.8 | 12.9 | 0.00 | 0.00 | 0.00 | 52 | 1019.9 |
| 20260902164031 | 35 | 298 | 1.6 | 12.9 | 0.00 | 0.00 | 0.00 | 53 | 1019.9 |
| 20260902163529 | 35 | 49 | 4.8 | 9.7 | 0.00 | 0.00 | 0.00 | 53 | 1020.0 |
| 20260902163043 | 34 | 53 | 1.6 | 9.7 | 0.00 | 0.00 | 0.00 | 54 | 1020.0 |
| 20260902162527 | 34 | 34 | 1.6 | 9.7 | 0.00 | 0.00 | 0.00 | 56 | 1020.0 |
| 20260902162031 | 34 | 47 | 3.2 | 9.7 | 0.00 | 0.00 | 0.00 | 57 | 1020.1 |
| 20260902161556 | 33 | 78 | 1.6 | 11.3 | 0.00 | 0.00 | 0.00 | 59 | 1020.2 |
| 20260902161028 | 33 | 67 | 1.6 | 11.3 | 0.00 | 0.00 | 0.00 | 59 | 1020.1 |
| 20260902160527 | 33 | 17 | 3.2 | 9.7 | 0.00 | 0.00 | 0.00 | 60 | 1020.2 |
| 20260902160041 | 32 | 138 | 1.6 | 9.7 | 0.00 | 0.00 | 0.00 | 62 | 1020.2 |
| 20260902155533 | 32 | 284 | 1.6 | 8.0 | 0.00 | 0.00 | 0.00 | 63 | 1020.3 |
| 20260902155029 | 32 | 304 | 3.2 | 8.0 | 0.00 | 0.00 | 0.00 | 63 | 1020.3 |
| 20260902154546 | 32 | 329 | 3.2 | 8.0 | 0.00 | 0.00 | 0.00 | 63 | 1020.3 |
| 20260902154031 | 32 | 67 | 3.2 | 9.7 | 0.00 | 0.00 | 0.00 | 64 | 1020.4 |
| 20260902153530 | 32 | 36 | 3.2 | 9.7 | 0.00 | 0.00 | 0.00 | 65 | 1020.5 |
| 20260902153051 | 31 | 213 | 1.6 | 6.4 | 0.00 | 0.00 | 0.00 | 66 | 1020.4 |